TIANMU-1 18

Last updated on Thu Jul 03 2025 00:02:22 GMT+0000 (Coordinated Universal Time)

1 58703U 24004D 25183.55791777 .00003972 00000+0 17585-3 0 9999 2 58703 97.4652 5.9417 0006809 128.9359 231.2485 15.22221461 82500
UTC large
Height (km)
Speed (km/s)
/
Latitude / Longitude
Inclination (degrees)
Orbital Period (minutes)
Azimuth
Elevation
Range (km)
Doppler Factor

Next 0 passes for location: London (51.5072 / 0.1276)

Sorry there are no passes over London.